Location: Prairie State College
(41.5244°N, 87.6382°W)
Time: 02:01:32
(UTC-05:00)

Amateur Radio Satellites - All Passes

Search period start: 30 July 2014 01:31
Search period end: 31 July 2014 01:31
Location: Prairie State College, 41.5244°N, 87.6382°W

Satellite Date Start Highest point End Downlink Frequencies (MHz)
Time Altitude Azimuth
Oscar 16 30 Jul 01:47:59 01:52:37 32° 96° (E) 01:57:13 437.025 USB, Beacon 2401.1428
ISS 30 Jul 01:54:59 01:57:11 16° 351° (N) 01:59:24 145.800 FM
Oscar 10/S400 30 Jul 01:58:53 02:43:14 61° 194° (SSW) 11:21:17 145.825 - 145.975 CW/USB, Beacon 145.810 USB
ITAMSAT 1 30 Jul 02:11:25 02:15:31 23° 94° (E) 02:19:34 435.822 SSB
Uribyol 2 30 Jul 02:30:06 02:34:53 37° 98° (E) 02:39:37 436.500 FM
AO-27 30 Jul 02:30:26 02:35:12 36° 97° (E) 02:39:55 436.795 MHz FM
TMSAT-1 30 Jul 02:36:07 02:37:53 12° 88° (E) 02:39:39 436.925 FM
Sapphire 30 Jul 02:42:21 02:45:45 17° 319° (NW) 02:49:10 437.095 MHz 1200 baud AX-25 AFSK
JAS-1B 30 Jul 02:46:15 02:54:51 41° 93° (E) 03:02:13 435.800 - 435.900 CW/SSB
Oscar 19 30 Jul 02:58:22 03:03:27 59° 288° (WNW) 03:08:31 437.125 CW, 437.150 USB
Gurwin Techsat 1B 30 Jul 02:58:57 03:03:29 28° 95° (E) 03:07:59 435.225 FM
AO-Echo 30 Jul 03:06:25 03:11:30 83° 103° (ESE) 03:16:24 ?
OPAL 30 Jul 03:27:06 03:31:47 45° 68° (ENE) 03:36:30 ?
Oscar 16 30 Jul 03:27:23 03:31:54 31° 293° (WNW) 03:36:24 437.025 USB, Beacon 2401.1428
ISS 30 Jul 03:32:36 03:34:54 17° 11° (N) 03:37:11 145.800 FM
ITAMSAT 1 30 Jul 03:50:18 03:55:10 43° 291° (WNW) 04:00:00 435.822 SSB
Uribyol 2 30 Jul 04:09:53 04:14:11 28° 294° (WNW) 04:18:29 436.500 FM
AO-27 30 Jul 04:10:11 04:14:35 29° 294° (WNW) 04:18:57 436.795 MHz FM
TMSAT-1 30 Jul 04:13:08 04:18:27 84° 285° (WNW) 04:23:44 436.925 FM
JAS-1B 30 Jul 04:36:33 04:45:28 50° 295° (WNW) 04:53:11 435.800 - 435.900 CW/SSB
AO-7 30 Jul 04:38:17 04:46:00 40° 99° (E) 04:53:38 29.400 - 29.500 MHz
Gurwin Techsat 1B 30 Jul 04:38:39 04:43:30 37° 292° (WNW) 04:48:20 435.225 FM
KITSAT 1 30 Jul 04:43:58 04:49:33 21° 102° (ESE) 04:55:08 435.175 FM
AO-Echo 30 Jul 04:47:22 04:49:30 13° 301° (WNW) 04:51:37 ?
Uosat F 30 Jul 05:04:16 05:09:17 67° 102° (ESE) 05:14:15 435.120 FM
OPAL 30 Jul 05:07:12 05:10:53 21° 264° (W) 05:14:35 ?
ISS 30 Jul 05:08:56 05:12:13 49° 30° (NNE) 05:15:29 145.800 FM
MaSat-1 30 Jul 05:45:22 05:50:05 31° 54° (NE) 05:54:36 437.345 MHz
STRAND 1 30 Jul 05:52:34 05:56:55 29° 66° (ENE) 06:01:17 ?
TMSAT-1 30 Jul 05:55:43 05:57:32 12° 302° (WNW) 05:59:20 436.925 FM
PANSAT 30 Jul 06:04:26 06:05:53 12° 180° (S) 06:07:21 not established
JAS-1B 30 Jul 06:30:05 06:33:30 13° 318° (NW) 06:36:48 435.800 - 435.900 CW/SSB
AO-7 30 Jul 06:31:00 06:38:51 48° 297° (WNW) 06:46:38 29.400 - 29.500 MHz
KITSAT 1 30 Jul 06:35:51 06:43:58 83° 301° (WNW) 06:52:08 435.175 FM
Hamsat 30 Jul 06:41:00 06:45:16 58° 100° (E) 06:49:32 145.90 MHz
Uosat F 30 Jul 06:44:35 06:47:30 16° 299° (WNW) 06:50:25 435.120 FM
ISS 30 Jul 06:46:08 06:48:43 21° 227° (SW) 06:51:17 145.800 FM
JAS-2 30 Jul 06:52:14 06:57:59 52° 99° (E) 07:03:10 435.800 - 435.900 CW/SSB, 435.910 FM
Saudisat 1A 30 Jul 07:17:36 07:21:55 58° 119° (ESE) 07:26:17 436.775 MHz
MaSat-1 30 Jul 07:22:38 07:27:29 38° 253° (WSW) 07:32:02 437.345 MHz
STRAND 1 30 Jul 07:31:17 07:35:58 35° 263° (W) 07:40:41 ?
SO-67 30 Jul 07:51:21 07:54:47 55° 100° (E) 07:58:11 435.3500 MHz FM
Sapphire 30 Jul 08:02:10 08:05:06 15° 39° (NE) 08:08:02 437.095 MHz 1200 baud AX-25 AFSK
Hamsat 30 Jul 08:18:35 08:20:45 14° 296° (WNW) 08:22:56 145.90 MHz
AO-7 30 Jul 08:27:42 08:29:34 11° 319° (NW) 08:31:25 29.400 - 29.500 MHz
KITSAT 1 30 Jul 08:34:18 08:40:37 24° 324° (NW) 08:46:58 435.175 FM
PCSat 30 Jul 08:34:34 08:39:00 25° 47° (NE) 08:43:24 145.825 MHz
JAS-2 30 Jul 08:38:11 08:42:35 22° 300° (WNW) 08:46:41 435.800 - 435.900 CW/SSB, 435.910 FM
Saudisat 1A 30 Jul 08:58:40 09:01:52 19° 318° (NW) 09:05:05 436.775 MHz
UKube-1 30 Jul 09:03:38 09:05:32 13° 91° (E) 09:07:25 145.840 MHz, 145.915 MHz
HO-68 30 Jul 09:38:50 09:45:47 51° 101° (E) 09:52:40 435.675 MHz FM
Sapphire 30 Jul 09:44:02 09:49:29 75° 60° (ENE) 09:54:54 437.095 MHz 1200 baud AX-25 AFSK
Oscar 11 30 Jul 09:46:09 09:49:22 20° 93° (E) 09:52:34 145.825 FM, Beacon 2401.500 USB
FUNcube-1 30 Jul 10:12:16 10:14:21 13° 91° (E) 10:16:27 145.950 - 145.970 MHz USB
PCSat 30 Jul 10:17:27 10:22:45 55° 246° (WSW) 10:28:00 145.825 MHz
KITSAT 1 30 Jul 10:37:22 10:39:42 11° 354° (N) 10:42:01 435.175 FM
UKube-1 30 Jul 10:37:49 10:42:06 58° 287° (WNW) 10:46:21 145.840 MHz, 145.915 MHz
Oscar 11 30 Jul 11:21:40 11:25:39 36° 289° (WNW) 11:29:37 145.825 FM, Beacon 2401.500 USB
HO-68 30 Jul 11:27:02 11:33:10 32° 299° (WNW) 11:39:18 435.675 MHz FM
RS-15 30 Jul 11:27:36 11:34:07 18° 99° (E) 11:40:32 29.354 - 29.394 USB, Beacon 29.352 USB
Sapphire 30 Jul 11:29:17 11:32:13 15° 257° (WSW) 11:35:09 437.095 MHz 1200 baud AX-25 AFSK
FUNcube-1 30 Jul 11:47:00 11:51:02 50° 287° (WNW) 11:55:07 145.950 - 145.970 MHz USB
SO-50 30 Jul 12:18:15 12:22:41 69° 120° (ESE) 12:27:13 436.795 FM
KITSAT 1 30 Jul 12:34:29 12:39:21 17° 25° (NNE) 12:44:12 435.175 FM
Oscar 19 30 Jul 12:37:20 12:41:28 26° 65° (ENE) 12:45:38 437.125 CW, 437.150 USB
AO-Echo 30 Jul 12:43:09 12:46:05 15° 60° (ENE) 12:49:00 ?
Oscar 16 30 Jul 13:05:04 13:09:57 48° 71° (ENE) 13:14:52 437.025 USB, Beacon 2401.1428
JAS-1B 30 Jul 13:28:51 13:37:02 39° 60° (ENE) 13:45:48 435.800 - 435.900 CW/SSB
ITAMSAT 1 30 Jul 13:29:24 13:34:08 37° 68° (ENE) 13:38:53 435.822 SSB
RS-15 30 Jul 13:33:29 13:44:37 80° 119° (ESE) 13:55:32 29.354 - 29.394 USB, Beacon 29.352 USB
Uribyol 2 30 Jul 13:48:02 13:53:06 57° 72° (ENE) 13:58:12 436.500 FM
AO-27 30 Jul 13:48:36 13:53:42 56° 72° (ENE) 13:58:48 436.795 MHz FM
AO-7 30 Jul 13:50:47 13:54:12 13° 43° (NE) 13:57:37 29.400 - 29.500 MHz
TMSAT-1 30 Jul 13:56:07 13:59:56 21° 63° (ENE) 14:03:45 436.925 FM
SO-50 30 Jul 14:00:41 14:03:44 18° 320° (NW) 14:06:50 436.795 FM
UOSAT-12 30 Jul 14:10:19 14:14:52 69° 120° (ESE) 14:19:32 437.025 FM, 437.400 FM
Oscar 19 30 Jul 14:15:50 14:20:36 39° 262° (W) 14:25:24 437.125 CW, 437.150 USB
AO-Echo 30 Jul 14:18:51 14:24:10 78° 257° (WSW) 14:29:31 ?
Gurwin Techsat 1B 30 Jul 14:20:04 14:25:04 45° 70° (ENE) 14:30:07 435.225 FM
KITSAT 1 30 Jul 14:29:07 14:36:58 50° 51° (NE) 14:44:44 435.175 FM
Uosat F 30 Jul 14:42:36 14:44:36 12° 59° (ENE) 14:46:36 435.120 FM
Oscar 16 30 Jul 14:45:48 14:49:33 21° 267° (W) 14:53:20 437.025 USB, Beacon 2401.1428
ITAMSAT 1 30 Jul 15:09:14 15:13:40 28° 265° (W) 15:18:06 435.822 SSB
JAS-1B 30 Jul 15:18:09 15:26:57 61° 261° (W) 15:36:44 435.800 - 435.900 CW/SSB
Uribyol 2 30 Jul 15:29:32 15:32:56 17° 268° (W) 15:36:20 436.500 FM
AO-27 30 Jul 15:30:02 15:33:33 18° 268° (W) 15:37:04 436.795 MHz FM
TMSAT-1 30 Jul 15:34:15 15:39:26 54° 260° (W) 15:44:38 436.925 FM
AO-7 30 Jul 15:37:06 15:45:10 56° 65° (ENE) 15:53:15 29.400 - 29.500 MHz
OPAL 30 Jul 15:39:16 15:40:41 11° 91° (E) 15:42:06 ?
Saudisat 1A 30 Jul 15:44:15 15:48:33 48° 52° (NE) 15:52:48 436.775 MHz
RS-15 30 Jul 15:48:17 15:58:07 36° 324° (NW) 16:07:56 29.354 - 29.394 USB, Beacon 29.352 USB
UOSAT-12 30 Jul 15:52:13 15:55:30 19° 319° (NW) 15:58:50 437.025 FM, 437.400 FM
Gurwin Techsat 1B 30 Jul 16:01:03 16:05:13 23° 266° (W) 16:09:25 435.225 FM
Uosat F 30 Jul 16:17:36 16:22:39 87° 256° (WSW) 16:27:44 435.120 FM
KITSAT 1 30 Jul 16:24:51 16:32:10 40° 251° (WSW) 16:39:27 435.175 FM
JAS-2 30 Jul 17:03:09 17:09:36 30° 64° (ENE) 17:15:38 435.800 - 435.900 CW/SSB, 435.910 FM
OPAL 30 Jul 17:15:03 17:20:09 85° 287° (WNW) 17:25:18 ?
JAS-1B 30 Jul 17:16:36 17:19:31 12° 281° (WNW) 17:22:30 435.800 - 435.900 CW/SSB
Saudisat 1A 30 Jul 17:24:45 17:27:46 18° 249° (WSW) 17:30:46 436.775 MHz
AO-7 30 Jul 17:30:51 17:38:13 34° 263° (W) 17:45:39 29.400 - 29.500 MHz
Hamsat 30 Jul 17:34:37 17:38:32 40° 72° (ENE) 17:42:29 145.90 MHz
RS-15 30 Jul 18:07:24 18:15:02 21° 359° (N) 18:22:44 29.354 - 29.394 USB, Beacon 29.352 USB
SO-67 30 Jul 18:25:25 18:27:56 19° 69° (ENE) 18:30:29 435.3500 MHz FM
JAS-2 30 Jul 18:46:32 18:54:13 60° 260° (W) 19:01:24 435.800 - 435.900 CW/SSB, 435.910 FM
OPAL 30 Jul 18:56:27 18:58:16 12° 304° (NW) 19:00:05 ?
SO-50 30 Jul 19:10:54 19:12:53 12° 35° (NE) 19:14:52 436.795 FM
Hamsat 30 Jul 19:12:01 19:14:41 16° 268° (W) 19:17:22 145.90 MHz
STRAND 1 30 Jul 19:41:11 19:46:19 77° 103° (ESE) 19:51:24 ?
SO-67 30 Jul 19:58:03 20:00:52 23° 265° (W) 20:03:44 435.3500 MHz FM
UKube-1 30 Jul 19:59:59 20:01:54 13° 61° (ENE) 20:03:49 145.840 MHz, 145.915 MHz
HO-68 30 Jul 20:07:36 20:14:08 40° 64° (ENE) 20:20:40 435.675 MHz FM
RS-15 30 Jul 20:22:26 20:32:07 34° 34° (NE) 20:42:00 29.354 - 29.394 USB, Beacon 29.352 USB
Oscar 11 30 Jul 20:42:04 20:44:51 17° 65° (ENE) 20:47:39 145.825 FM, Beacon 2401.500 USB
SO-50 30 Jul 20:49:37 20:54:22 65° 55° (NE) 20:59:09 436.795 FM
UOSAT-12 30 Jul 21:01:40 21:03:25 12° 34° (NE) 21:05:10 437.025 FM, 437.400 FM
FUNcube-1 30 Jul 21:09:56 21:11:43 12° 63° (ENE) 21:13:30 145.950 - 145.970 MHz USB
MaSat-1 30 Jul 21:13:12 21:17:18 79° 296° (WNW) 21:22:07 437.345 MHz
STRAND 1 30 Jul 21:22:15 21:24:50 14° 300° (WNW) 21:27:26 ?
UKube-1 30 Jul 21:33:13 21:37:33 66° 258° (WSW) 21:41:55 145.840 MHz, 145.915 MHz
ISS 30 Jul 21:52:49 21:54:37 14° 130° (SE) 21:56:25 145.800 FM
HO-68 30 Jul 21:55:06 22:01:46 41° 262° (W) 22:08:28 435.675 MHz FM
Oscar 11 30 Jul 22:16:35 22:20:41 44° 261° (W) 22:24:50 145.825 FM, Beacon 2401.500 USB
SO-50 30 Jul 22:31:38 22:34:26 16° 251° (WSW) 22:37:15 436.795 FM
RS-15 30 Jul 22:34:49 22:45:54 86° 240° (WSW) 22:57:25 29.354 - 29.394 USB, Beacon 29.352 USB
UOSAT-12 30 Jul 22:39:51 22:44:33 61° 54° (NE) 22:49:11 437.025 FM, 437.400 FM
FUNcube-1 30 Jul 22:43:22 22:47:38 62° 259° (W) 22:51:50 145.950 - 145.970 MHz USB
MaSat-1 30 Jul 22:53:52 22:55:38 12° 319° (NW) 22:57:28 437.345 MHz
PCSat 30 Jul 23:17:49 23:21:29 19° 105° (ESE) 23:25:09 145.825 MHz
ISS 30 Jul 23:27:37 23:30:56 70° 326° (NNW) 23:34:17 145.800 FM
UOSAT-12 31 Jul 00:21:20 00:24:12 16° 251° (WSW) 00:27:02 437.025 FM, 437.400 FM
Sapphire 31 Jul 00:25:47 00:31:08 68° 116° (ESE) 00:36:32 437.095 MHz 1200 baud AX-25 AFSK
RS-15 31 Jul 00:49:12 00:56:41 21° 260° (W) 01:04:22 29.354 - 29.394 USB, Beacon 29.352 USB
PCSat 31 Jul 00:59:02 01:04:22 61° 303° (WNW) 01:09:46 145.825 MHz
ISS 31 Jul 01:05:39 01:08:08 19° 345° (NNW) 01:10:36 145.800 FM
Oscar 16 31 Jul 01:17:44 01:21:00 17° 91° (E) 01:24:14 437.025 USB, Beacon 2401.1428
